User: anonymous   Login
Location: Gniazdowice
(50.2124°N, 20.2673°E)
Time: 19:10:44
(UTC+00:00)
Language:

Cosmos 841 Rocket - Orbit

View from above orbital plane
View from above orbital plane
View from above satellite
View from above satellite

Ground track
Ground track

The orbit data is extracted from the following two-line orbital elements,

1 09023U 76069B   24199.55964638  .00000731  00000-0  23776-3 0  9992
2 09023  74.0439 359.9201 0018124 246.9439 112.9805 14.40444957516904
Epoch (UTC): 17 July 2024 13:25:53
Eccentricity: 0.0018124
inclination: 74.0439°
perigee height: 744 km
apogee height: 770 km
right ascension of ascending node: 359.9201°
argument of perigee: 246.9439°
revolutions per day: 14.40444957
mean anomaly at epoch: 112.9805°
orbit number at epoch: 51690

The dashed part of the orbit path shows where the satellite is in the earth's shadow,  

DLR